Flag for Canada Weather past 2 weeks in Aklavik, Northwest Territories, Canada

Now
34 °F

Overcast.


Feels Like: 31 °F
Forecast: 26 / 33 °F
Wind: 3 mph from Southeast

Location: Inuvik

Current Time: Apr 25, 2015 at 1:16:56 AM

Latest Report: Apr 25, 2015 at 12:00 AM


Visibility: 15 mi

Pressure: 30.08 "Hg

Humidity: 81%

Dew point: 28 °F

Location of AklavikLocation

Historic Weather in Aklavik — Graph

°F

Aklavik temperature yesterday

Maximum temperature yesterday: 37 °F (at 12:00 AM)
Minimum temperature yesterday: 30 °F (at 6:00 AM)
Average temperature yesterday: 33 °F

Past Weeks' High & Low Weather Summary

 TemperatureHumidityPressure
High45 °F (Apr 23, 5:00 PM)93% (Apr 11, 9:57 AM)30.26 "Hg (Apr 11, 9:57 AM)
Low-2 °F (Apr 14, 6:00 AM)31% (Apr 23, 7:00 PM)29.34 "Hg (Apr 11, 5:00 AM)
Average22 °F74%29.83 "Hg
* Reported Midnight between Apr 9 and Apr 10 — Midnight between Apr 24 and Apr 25, Aklavik, Weather by CustomWeather, © 2015

Note: Actual official high and low records may vary slightly from our data, if they occured in-between our weather recording intervals... More about our weather records

Advertising

Aklavik weather history for previous 24 hours

 ConditionsComfort  
Time TempWeatherWind HumidityBarometerVisibility
12:00 AM
Sat, Apr 25
34 °FOvercast.3 mph81%30.08 "Hg15 mi
11:00 PM
Fri, Apr 24
34 °FOvercast.No wind75%30.09 "Hg15 mi
10:00 PM34 °FOvercast.3 mph75%30.09 "Hg15 mi
9:00 PM34 °FOvercast.6 mph70%30.10 "Hg15 mi
8:00 PM34 °FOvercast.9 mph70%30.11 "Hg15 mi
7:00 PM34 °FOvercast.17 mph70%30.11 "Hg15 mi
5:00 PM34 °FOvercast.7 mph70%30.13 "Hg15 mi
4:00 PM34 °FOvercast.12 mph70%30.14 "Hg15 mi
3:00 PM34 °FOvercast.12 mph75%30.14 "Hg15 mi
2:00 PM36 °FScattered clouds.13 mph65%30.15 "Hg15 mi
1:00 PM34 °FPartly sunny.8 mph70%30.16 "Hg15 mi
12:00 PM34 °FScattered clouds.10 mph65%30.17 "Hg15 mi
11:00 AM34 °FPassing clouds.8 mph65%30.18 "Hg15 mi
10:00 AM32 °FPassing clouds.7 mph69%30.19 "Hg15 mi
9:00 AM32 °FPassing clouds.9 mph69%30.19 "Hg15 mi
8:00 AM30 °FPassing clouds.13 mph75%30.18 "Hg15 mi
7:00 AM30 °FClear.12 mph69%30.20 "Hg15 mi
6:00 AM30 °FClear.12 mph69%30.20 "Hg15 mi
5:00 AM32 °FClear.16 mph64%30.20 "Hg15 mi
4:00 AM32 °FClear.9 mph69%30.20 "Hg15 mi
3:00 AM34 °FClear.10 mph65%30.20 "Hg15 mi
2:00 AM34 °FSunny.10 mph65%30.20 "Hg15 mi
1:00 AM34 °FSunny.10 mph60%30.21 "Hg15 mi
Weather by CustomWeather, © 2015

See weather overviewHow to use our weather pages